Dewpoint
51 51 51 51 52 52 52 52 51 50 50 45 43 44 38 28 27 25 24 24 23 22 17 20 20 13 11 16 16 13 16 13 16 17 17 17 22 21 21 19 17 19 22 22 25 25 24 25 25 25 24 26 24 25 24 25 26 27 27 28 24 41 24 24 24 31 27 15 16 18 18 15 11 11 13 13 11 10 11 14 20 17 14 12 13 21 21
51 51 51 52 52 52 52 52 52 51 50 49 46 41 38 36 36 27 23 24 24 22 17 18 18 19 18 22 18 17 17 15 17 17 16 18 20 23 21 21 22 24 25 24 23 25 24 25 24 30 31 29 27 26 25 25 25 25 28 34 33 27 30 28 27 27 29 15 18 16 17 16 12 10 12 13 13 12 11 14 22 21 15 11 12 13 21
51 51 51 52 52 52 51 52 51 51 51 50 47 41 40 40 34 24 23 25 22 21 18 17 20 19 19 21 19 18 19 20 19 18 18 19 24 24 22 22 22 23 23 21 22 25 26 26 29 33 34 33 32 30 30 24 25 25 30 44 33 34 32 32 27 27 24 17 16 18 18 17 14 11 10 12 11 15 15 15 25 21 34 30 16 15 26
51 51 51 52 52 52 52 52 52 51 51 51 47 43 42 33 27 24 24 25 23 22 20 17 19 20 22 21 21 19 19 22 21 19 19 28 25 25 24 22 24 23 22 21 22 25 26 31 36 35 33 31 31 30 29 27 24 37 49 41 33 31 32 35 34 30 29 24 33 21 21 17 14 10 10 10 10 11 17 21 23 19 30 25 31 29 30
50 50 51 51 52 52 52 52 51 52 52 51 48 45 40 33 27 26 27 25 22 18 16 18 16 16 21 22 23 22 22 22 21 26 23 26 27 27 23 24 24 22 23 24 25 26 29 32 34 33 32 31 31 30 28 30 33 47 40 35 29 35 32 31 36 32 31 33 34 28 27 17 16 13 9 10 10 12 15 16 17 41 27 21 33 49 28
51 51 51 51 52 52 52 52 51 51 51 51 49 41 38 32 31 30 30 27 26 23 21 18 14 17 19 23 28 23 21 23 22 23 27 28 31 28 23 22 24 24 22 26 25 27 29 31 31 32 32 30 30 29 27 28 37 36 24 25 27 30 31 30 26 27 27 28 27 29 29 25 20 14 11 10 11 12 14 21 18 31 26 26 40 45 35
51 51 51 51 52 52 52 52 51 51 50 50 47 41 37 36 35 32 33 31 30 28 27 25 22 18 23 24 25 23 23 21 21 22 22 25 27 30 24 24 25 25 26 27 28 30 28 28 31 32 31 29 30 28 27 28 26 25 25 26 33 33 31 33 30 28 25 26 26 27 28 27 26 21 12 11 10 11 12 14 16 19 38 34 30 39 28
51 51 51 52 52 52 52 52 52 51 50 48 43 40 37 38 37 37 37 35 33 32 28 26 24 21 23 22 23 29 25 21 22 22 22 22 25 28 27 26 26 26 26 29 27 28 28 30 29 31 30 29 30 28 28 26 25 24 25 26 31 31 32 34 30 30 27 26 27 27 28 28 26 24 14 11 10 11 11 11 15 21 22 20 22 39 37
51 51 52 52 51 52 52 51 51 51 50 43 42 40 42 40 41 43 40 36 35 34 33 28 26 21 22 21 25 25 23 23 23 21 21 24 26 27 26 27 28 26 28 29 29 30 31 30 29 28 28 27 28 27 27 26 25 25 24 26 28 29 31 31 32 31 29 28 26 24 27 27 26 25 25 19 12 13 12 14 14 19 27 27 24 36 30
51 51 52 51 51 51 51 51 52 51 50 47 45 39 41 43 44 43 44 36 38 35 34 32 27 23 23 23 19 21 22 22 23 22 23 28 28 28 30 29 27 28 28 27 28 29 28 29 28 27 26 25 26 26 26 26 25 24 23 26 25 30 30 29 28 27 29 29 26 26 27 27 26 26 22 20 25 19 14 15 17 17 18 23 27 28 33
51 51 51 51 51 51 51 51 52 51 50 47 46 44 44 46 44 44 43 35 37 36 35 32 29 32 24 23 24 22 22 22 24 22 26 25 26 32 27 27 29 26 27 27 26 25 26 25 24 24 24 23 23 25 26 25 24 23 23 24 26 27 28 29 30 28 28 27 28 26 27 25 26 29 25 26 25 21 16 14 14 16 16 19 27 31 39
51 51 51 51 51 51 51 51 52 51 50 50 48 47 47 51 48 45 39 33 35 36 37 34 32 31 29 26 26 25 24 24 25 24 24 24 24 25 33 32 33 27 28 26 25 25 23 22 22 24 23 23 23 23 25 25 24 26 22 23 23 24 27 29 33 28 27 27 27 27 24 25 31 28 27 25 24 25 25 27 14 15 17 19 24 33 35
50 51 50 51 51 51 51 51 52 52 51 50 51 47 49 52 47 44 41 36 33 36 35 36 35 33 31 28 27 27 26 24 23 25 26 25 24 25 33 24 25 27 26 24 24 23 23 24 25 26 26 24 22 21 21 22 22 21 20 21 22 23 24 27 28 28 28 28 27 25 26 31 26 27 28 28 22 23 25 23 20 20 20 30 29 34 35
50 51 51 51 51 51 51 51 51 52 52 51 51 50 51 50 45 43 42 35 35 37 37 37 36 34 32 31 29 27 26 26 28 25 25 28 27 25 23 24 25 25 24 25 25 28 27 27 26 27 24 23 23 21 18 18 18 18 17 18 19 21 24 26 26 30 27 27 24 25 32 27 25 26 28 24 27 26 27 26 27 27 28 29 32 34 31
51 51 51 51 51 52 52 52 53 53 52 51 52 51 51 51 49 46 46 41 34 38 39 33 36 35 34 33 32 29 29 29 26 28 28 26 28 26 26 25 26 25 26 28 28 29 28 27 26 24 25 22 17 18 15 12 14 16 17 18 21 26 24 27 28 27 28 28 25 25 24 25 27 31 28 26 25 28 29 31 28 33 25 26 31 32 32
51 51 51 51 52 52 52 52 53 53 53 52 52 51 51 52 52 49 46 41 37 31 37 38 38 37 35 34 34 31 29 29 33 30 28 33 34 29 29 26 25 27 26 28 30 28 27 26 24 26 23 22 20 18 17 11 12 12 14 17 17 18 23 28 25 25 26 26 25 23 23 25 32 30 27 27 31 30 29 29 26 49 53 33 29 28 45
51 51 52 52 52 52 53 52 52 53 53 52 52 51 50 53 50 48 45 44 40 34 40 39 38 36 36 35 34 33 32 30 28 26 27 28 31 28 25 28 28 28 34 27 29 28 26 25 25 26 25 22 21 22 16 14 13 12 13 15 15 16 18 22 25 26 26 26 25 24 29 30 34 32 26 28 31 32 32 27 31 52 52 49 48 35 42
52 52 52 52 52 53 53 53 53 53 52 52 53 51 50 53 52 50 47 44 39 37 41 40 38 36 36 35 34 34 35 34 32 33 31 33 35 37 30 28 26 29 30 30 31 25 24 26 26 24 22 23 24 22 20 24 18 17 16 16 15 17 19 20 21 22 25 28 24 25 30 37 36 35 34 30 30 31 28 28 50 53 52 50 50 48 51
52 52 52 52 52 52 53 53 53 52 53 52 53 51 51 53 53 51 48 45 41 35 41 40 40 39 38 37 36 35 34 34 34 33 31 30 35 37 33 30 31 27 31 28 31 28 25 25 30 25 26 24 24 23 25 22 23 24 26 16 17 18 21 21 21 19 21 23 22 23 33 40 36 38 40 45 38 31 30 51 53 53 52 54 53 51 55
51 52 52 52 52 52 52 53 53 53 53 53 53 49 51 53 53 52 48 43 43 41 41 40 39 38 38 37 36 37 38 37 37 34 32 29 34 33 30 29 37 34 32 36 28 30 26 25 27 27 25 23 26 28 25 22 23 24 26 21 18 19 18 17 16 19 20 24 24 24 26 42 37 42 44 45 44 48 50 49 52 51 52 53 54 56 56
52 51 52 52 52 52 52 52 53 53 53 53 52 51 49 53 53 53 52 48 44 39 39 41 40 39 38 37 38 37 36 35 38 38 35 35 37 34 26 29 32 32 30 33 27 27 28 27 31 29 34 29 34 26 24 26 24 23 25 28 29 33 27 20 17 20 19 19 22 27 39 40 37 39 40 42 44 44 45 46 49 50 51 52 54 55 56
51 51 52 52 52 52 52 52 53 52 53 53 52 52 48 52 54 54 52 51 46 41 40 41 41 40 40 39 39 39 38 38 37 37 36 37 36 34 34 33 37 39 37 33 28 30 33 33 38 29 28 28 33 26 30 26 20 26 25 32 25 34 32 38 33 34 31 25 30 37 39 38 37 38 38 39 40 40 41 44 47 47 49 52 53 54 54
51 51 52 52 52 52 52 52 52 52 53 53 52 51 48 51 53 54 53 47 47 47 45 43 41 41 41 40 40 39 39 38 38 38 38 38 35 34 34 39 34 40 38 39 39 34 33 33 30 32 27 27 28 27 27 28 26 24 23 26 28 30 32 36 34 33 35 33 35 39 37 38 37 36 38 39 38 37 38 43 49 49 48 48 50 53 54
51 52 52 52 52 52 52 53 53 53 53 53 52 51 50 52 53 53 50 48 45 42 43 44 43 40 38 37 38 39 39 39 39 40 41 40 35 32 35 38 37 34 39 42 40 37 36 33 31 33 29 30 32 26 24 24 26 29 28 26 26 27 30 30 28 33 28 27 33 34 35 36 37 35 36 39 40 39 40 45 46 46 46 46 48 49 51
51 52 52 52 52 52 52 53 53 52 52 52 52 53 53 52 53 52 47 42 43 42 36 36 38 38 38 39 38 37 37 37 37 37 37 38 38 34 34 36 35 35 36 38 40 37 38 33 32 31 28 31 32 25 27 26 25 32 28 27 27 27 35 28 27 28 28 30 33 33 33 35 36 33 34 35 37 38 44 46 45 45 46 47 48 48 48
52 52 52 52 52 53 53 52 52 52 52 52 52 51 51 51 53 54 52 49 47 44 37 35 35 38 38 36 36 36 37 35 33 33 35 35 35 36 35 36 36 38 38 38 38 37 36 36 36 34 32 33 35 29 28 32 31 33 31 33 33 34 35 28 32 30 29 30 31 31 31 31 32 33 35 35 36 40 44 44 43 43 43 44 45 46 47
52 52 52 52 52 52 52 52 52 52 52 52 52 52 52 52 54 51 49 47 41 37 39 35 36 37 38 37 37 37 37 35 33 32 33 34 33 34 35 37 37 38 36 36 38 37 35 34 33 32 33 32 34 32 32 31 29 28 27 27 28 26 26 29 29 29 27 26 28 31 27 27 29 32 33 36 41 41 40 41 42 43 44 44 44 44 46
52 52 52 52 52 52 52 52 52 52 52 52 52 51 52 53 52 52 51 49 42 37 40 41 38 39 38 37 37 37 36 36 34 33 33 33 34 34 35 35 37 34 35 35 35 35 34 32 32 37 35 36 36 33 34 34 33 31 31 29 31 27 31 27 27 26 25 29 32 36 35 34 33 34 34 35 38 40 41 41 42 43 44 44 44 45 46
52 52 52 52 52 52 52 52 52 52 52 52 53 52 51 53 52 51 51 51 48 44 42 41 40 38 36 35 35 34 36 36 36 35 35 34 34 35 35 35 35 34 34 35 35 35 33 34 35 34 36 39 34 30 31 28 28 27 27 30 29 31 32 31 32 31 31 32 33 35 35 35 37 36 35 36 38 39 39 41 42 42 43 43 43 44 45
52 52 52 52 52 52 52 52 52 52 52 53 52 50 49 48 51 52 50 51 50 48 42 38 34 36 37 36 36 35 35 36 34 34 35 34 34 35 36 37 37 37 37 36 36 34 34 34 33 34 34 38 33 32 29 29 28 29 32 34 35 34 33 34 35 33 31 34 34 36 37 36 36 38 40 38 39 40 40 41 41 42 43 43 43 44 45
51 52 52 52 52 52 52 52 52 52 52 53 52 47 42 42 48 51 51 51 51 48 43 42 38 38 37 37 36 36 37 36 36 34 34 33 35 35 36 37 37 37 38 38 38 37 37 35 34 35 37 36 38 35 32 31 30 31 33 37 41 39 38 39 40 41 43 41 37 37 36 37 38 37 38 38 39 40 40 40 42 44 42 43 44 47 47
52 52 52 52 51 52 52 52 53 52 52 48 46 45 45 47 50 51 51 52 51 48 43 39 36 35 33 37 40 38 37 38 38 37 38 37 37 37 37 36 37 38 40 40 41 41 39 39 38 38 39 42 41 37 35 33 31 32 36 38 38 39 40 40 41 41 41 41 40 39 37 37 38 37 37 39 39 38 38 39 40 41 45 45 46 46 47
51 51 51 51 52 52 52 52 52 52 50 49 49 49 50 50 50 51 52 51 50 47 45 42 35 35 34 35 38 43 42 41 42 40 44 46 42 41 39 38 39 39 42 44 41 39 42 41 44 41 44 46 41 39 37 36 36 39 40 41 41 41 41 41 41 40 40 41 41 39 38 37 38 40 40 40 39 38 39 39 40 40 40 41 42 43 45
51 51 51 51 52 52 52 52 51 50 49 51 50 47 49 50 52 50 51 50 46 45 43 39 34 35 34 37 39 45 43 43 45 45 44 48 49 44 46 47 48 42 46 42 44 44 44 43 40 41 43 41 45 38 34 39 41 41 42 42 43 42 41 41 40 40 41 41 42 42 41 40 41 41 40 39 40 40 41 40 38 38 38 40 42 43 45
51 51 51 52 52 52 51 51 53 51 50 49 49 50 49 50 51 50 50 48 42 40 39 38 38 34 35 38 39 40 42 42 43 47 43 47 51 45 47 43 44 39 42 47 43 42 39 40 43 38 36 42 38 34 36 39 39 40 40 40 41 42 42 41 41 42 42 43 43 43 42 42 41 40 40 40 40 40 39 39 40 39 39 40 41 42 45
51 52 52 52 52 53 52 51 53 53 50 48 49 51 51 51 51 52 51 50 47 41 39 39 39 36 36 33 35 40 41 44 44 45 44 47 48 50 49 44 38 42 45 43 37 41 37 44 41 35 41 36 35 37 37 39 38 38 39 39 41 42 43 43 43 44 44 45 45 44 43 42 41 41 41 41 41 42 41 41 41 41 41 41 42 43 44
51 52 52 51 52 53 52 49 51 49 49 49 50 52 51 50 50 49 48 46 48 49 43 41 37 38 38 38 41 42 42 40 41 44 47 43 42 47 45 42 38 43 42 40 40 38 41 47 40 35 35 34 36 40 41 40 40 40 42 43 45 46 47 47 47 47 46 46 47 46 44 43 42 42 42 42 41 42 42 42 41 42 42 43 43 42 44
51 51 52 51 53 49 48 48 51 52 53 52 52 49 49 47 45 45 45 44 46 46 44 44 38 41 41 41 38 41 42 39 43 44 44 44 45 43 45 42 42 43 34 37 41 47 44 42 37 34 36 41 41 40 40 42 44 45 45 45 46 48 49 50 51 50 48 47 46 46 46 43 43 43 42 43 43 43 43 44 43 43 43 43 43 45 44
51 54 53 55 50 44 43 52 53 53 49 51 51 51 47 47 46 45 45 45 45 45 45 43 40 43 42 41 42 44 42 42 39 39 38 44 44 39 44 38 42 44 34 37 42 48 36 37 37 35 34 38 37 40 44 45 45 46 46 46 47 48 50 51 52 52 49 48 47 46 45 43 43 43 43 44 44 44 43 43 43 44 44 43 44 46 46
57 55 49 47 45 49 53 53 54 52 51 50 50 48 45 48 45 39 45 40 40 46 47 43 44 43 43 41 41 39 44 42 37 38 41 42 45 40 43 44 40 38 30 31 35 48 36 31 35 34 32 37 39 43 44 45 44 45 46 46 47 48 49 50 51 53 53 53 51 48 47 45 46 45 45 45 45 44 43 44 44 45 44 44 46 47 48
48 49 45 45 48 52 53 52 52 52 52 48 47 47 42 36 44 44 40 38 39 45 50 50 48 47 44 44 44 41 46 48 46 45 44 37 44 46 36 34 42 34 30 30 36 38 34 32 32 32 33 40 42 44 45 45 45 47 46 46 47 48 48 48 49 50 51 52 53 52 52 49 48 48 47 47 47 46 46 45 45 45 45 46 47 49 51
53 50 51 52 53 56 53 52 54 49 42 42 41 35 37 39 43 47 42 38 36 43 48 50 44 44 47 49 47 45 46 47 47 46 43 37 44 39 34 35 41 31 31 35 35 32 31 29 30 32 39 42 43 44 45 45 47 46 46 45 47 47 47 47 47 48 50 50 51 52 53 54 53 53 53 52 51 50 48 47 47 46 45 47 49 52 56
50 50 53 53 53 50 51 37 37 41 34 35 33 34 34 34 37 40 41 41 43 42 42 51 50 53 49 51 50 48 48 49 48 46 42 38 42 40 33 30 31 28 32 39 31 30 30 30 30 34 41 43 43 44 45 47 48 47 47 47 47 47 47 47 47 47 48 49 49 50 51 51 52 54 54 54 52 51 49 48 47 48 48 53 58 59 59
55 56 56 47 39 39 39 30 34 33 34 30 30 30 32 34 37 39 37 41 43 36 38 38 42 46 41 47 48 49 51 50 48 47 36 36 32 31 31 28 29 30 33 30 30 29 30 32 35 37 38 40 41 44 45 46 46 47 47 48 47 47 47 46 46 46 47 47 47 48 50 50 50 51 51 54 51 52 50 50 51 59 58 57 56 56 57
47 40 37 36 34 32 35 30 35 30 29 31 32 32 33 33 35 36 36 43 48 42 45 42 39 40 42 44 46 46 43 46 46 40 33 32 30 30 29 28 31 31 30 29 30 31 31 32 34 34 35 36 38 42 45 46 47 46 46 46 47 47 47 46 46 46 46 47 47 47 48 48 48 48 50 50 51 53 56 55 55 56 55 56 56 56 57
41 36 32 30 29 30 29 29 29 29 33 33 32 34 35 35 37 39 40 41 51 41 44 43 44 43 46 39 37 35 36 38 34 34 33 31 29 27 31 33 32 30 30 29 29 30 32 34 34 36 37 37 38 40 43 45 47 47 47 46 46 47 47 47 47 46 46 46 47 47 47 47 47 48 48 49 50 50 50 51 51 52 51 52 54 54 54
39 39 30 30 29 29 32 27 28 31 31 33 34 33 34 37 38 39 38 41 49 42 41 47 48 43 43 35 47 35 35 34 33 33 31 29 29 30 32 31 29 30 29 29 30 31 34 34 36 38 38 37 38 39 39 42 45 46 46 47 47 47 47 47 47 47 47 46 46 46 46 47 47 47 47 47 48 49 50 50 50 50 50 49 50 50 50
33 36 33 26 26 28 26 29 31 31 30 33 32 33 33 37 37 37 38 39 40 40 41 40 39 38 41 37 38 33 33 34 32 32 33 30 31 30 29 31 30 32 33 32 33 38 37 37 37 39 40 38 37 38 38 38 41 44 46 47 46 46 47 46 47 47 47 47 46 45 45 46 46 46 46 46 47 47 48 48 48 49 49 49 50 50 49
36 32 31 29 31 31 30 31 29 28 29 30 30 30 32 33 35 37 38 40 38 39 39 38 36 35 36 34 33 34 34 35 33 30 34 30 29 29 28 27 30 29 34 39 37 40 39 39 40 41 40 40 38 36 37 37 37 38 42 45 46 47 47 47 47 47 47 47 47 46 46 46 46 46 46 46 46 47 48 48 48 48 48 49 49 49 49
30 31 33 29 30 29 30 29 27 27 28 28 29 30 30 31 33 36 38 38 39 39 38 37 37 33 32 35 31 33 32 34 34 31 32 32 32 32 31 30 31 33 36 37 36 37 38 38 40 40 40 40 40 38 37 36 37 37 36 39 43 46 47 48 47 48 47 47 47 47 46 47 46 46 46 46 47 47 47 47 47 47 47 48 48 48 48
33 30 30 32 30 29 31 30 26 24 26 28 29 31 31 30 34 35 37 38 38 37 35 33 34 33 29 31 30 30 31 35 33 33 33 33 36 36 32 32 35 39 41 38 36 35 37 39 39 39 40 40 40 39 38 38 37 35 35 36 39 41 44 44 47 47 47 48 48 48 47 47 47 47 47 47 46 46 46 47 47 47 47 48 47 47 47
29 28 30 31 33 32 29 31 30 31 29 31 31 32 33 33 35 37 39 36 35 34 31 33 34 31 31 30 32 32 34 33 32 33 34 35 39 37 37 39 37 38 39 36 36 35 37 38 40 40 40 40 41 39 39 38 36 34 35 34 36 39 41 42 42 44 46 46 47 47 47 48 48 48 47 46 45 45 46 47 48 47 48 48 48 47 47